Location: Newark
(44.3681°N, 100.3364°W)
Time: 21:59:53
(UTC+00:00)

deb Explorer IX - Pass Details

Date: 26 February 2020
Orbit: 547 x 1100 km, 38.8° (Epoch: 05 April)

Event Time Altitude Azimuth Distance (km) Brightness Sun altitude
Rises 15:59:45 0° 237° (WSW) 3,102 ? 23.9°
Reaches altitude 10° 16:02:29 10° 228° (SW) 2,093 ? 24.3°
Maximum altitude 16:06:42 31° 166° (SSE) 1,083 ? 24.8°
Drops below altitude 10° 16:10:30 10° 104° (ESE) 1,885 ? 25.3°
Sets 16:12:51 0° 94° (E) 2,743 ? 25.6°
